Ana Sayfa
METAR-TAF:

METAR-TAF

Havaalanları :

Lake Argyle, Avustralya

Enlem: 16-38-13S, Boylam: 128-27-05E, yükseklik: 159 m

Güncel hava durumu gözlemi

Rapor saat 13:00 UTC de 34 dakika önce yapıldı.
Rüzgar kuzeydan 9 kt
Sıcaklık 35°C
Nem 30%
Basınç 1010 hPa
Görüş mesafesi 10 km veya daha fazla

METAR: YARG 091300Z AUTO 36009KT 9999 // NCD 35/15 Q1010

Saat: 21:34 (13:34 UTC)


TAF: eksik

4.000'den fazla havaalanı için hava durumu gözlemleri ve tahminleri (METAR ve TAF raporları).

Kullanılabilir istasyonlar harita üzerinde sarı ve kırmızı noktalarla gösterilir.

İstasyonun adını görmek için fareyi noktanın üzerinde gezdirin.

Sonrasında hava gözlem ve tahminlerini görmek için tıklayın.

Haritayı değiştirmek için: yaklaştırmak için siyah artı işaretli yeşil düğmeye ve uzaklaştırmak için de eksi işaretli düğmeye hızla tıklayın; bitişik haritalar için yeşil okları kullanın.


METAR-TAF: